Tracking 25734 objects as of 26-May-2022
HD Live streaming from Space Station
objects crossing your sky now

COSMOS 2251 DEB

Track COSMOS 2251 DEB now!
10-day predictions


NORAD ID: 34308
Int'l Code: 1993-036NE
Perigee: 615.9 km
Apogee: 684.1 km
Inclination: 74.0 °
Period: 97.6 minutes
Semi major axis: 7021 km
RCS: 0.0637 m2 (small)
Launch date: June 16, 1993
Source: Commonwealth of Independent States (former USSR) (CIS)
Launch site: PLESETSK MISSILE AND SPACE COMPLEX (PKMTR)

Note: This is SATELLITE DEBRIS
aabbcc
Your satellite tracking list
Your tracking list is empty




NASA's NSSDC Master Catalog

Two Line Element Set (TLE):
1 34308U 93036NE  22145.33445809  .00012154  00000-0  17447-2 0  9997
2 34308  73.9925 103.6990 0048562 209.5142 272.4115 14.75718022706700
Source of the keplerian elements: AFSPC